Flag for U.S.A. Weather past 2 weeks in Lancaster, California, U.S.A.

Now
65 °F

Clear.


Feels Like: 65 °F
Forecast: 58 / 86 °F
Wind: 14 mph from West

Location: Lancaster / Fox Field

Current Time: Sep 5, 2015 at 1:07:38 AM

Latest Report: Sep 4, 2015 at 11:56 PM


Visibility: 10 mi

Pressure: 29.85 "Hg (27.44 "Hg at 718m altitude)

Humidity: 37%

Dew point: 38 °F

Location of LancasterLocation

Historic Weather in Lancaster — Graph

°F

Lancaster temperature yesterday

Maximum temperature yesterday: 83 °F (at 2:56 PM)
Minimum temperature yesterday: 57 °F (at 6:56 AM)
Average temperature yesterday: 69 °F

Past Weeks' High & Low Weather Summary

 TemperatureHumidityPressure
High104 °F (Aug 27, 2:56 PM)72% (Sep 4, 6:56 AM)30.03 "Hg (Sep 4, 6:56 AM)
Low57 °F (Sep 4, 6:56 AM)8% (Aug 24, 1:56 PM)29.76 "Hg (Aug 21, 1:56 AM)
Average81 °F30%29.88 "Hg
* Reported Aug 20 11:56 PM — Sep 4 11:56 PM, Lancaster, Weather by CustomWeather, © 2015

Note: Actual official high and low records may vary slightly from our data, if they occured in-between our weather recording intervals... More about our weather records

Advertising

Lancaster weather history for previous 24 hours

 ConditionsComfort  
Time TempWeatherWind HumidityBarometerVisibility
11:56 PM
Fri, Sep 4
65 °FClear.14 mph37%29.85 "Hg10 mi
10:56 PM65 °FClear.9 mph52%29.85 "Hg10 mi
9:56 PM66 °FClear.17 mph56%29.85 "Hg10 mi
8:56 PM67 °FClear.22 mph57%29.84 "Hg10 mi
7:56 PM68 °FSunny.24 mph59%29.82 "Hg10 mi
6:56 PM72 °FSunny.23 mph49%29.81 "Hg10 mi
5:56 PM77 °FSunny.23 mph37%29.79 "Hg10 mi
4:56 PM80 °FSunny.23 mph27%29.78 "Hg10 mi
3:56 PM81 °FSunny.18 mph23%29.78 "Hg10 mi
2:56 PM83 °FSunny.21 mph17%29.78 "Hg10 mi
1:56 PM82 °FSunny.20 mph20%29.80 "Hg10 mi
12:56 PM81 °FSunny.18 mph23%29.81 "Hg10 mi
11:56 AM78 °FSunny.16 mph27%29.83 "Hg10 mi
10:56 AM75 °FSunny.15 mph32%29.85 "Hg10 mi
9:56 AM71 °FSunny.16 mph39%29.85 "Hg10 mi
8:56 AM66 °FSunny.13 mph52%29.87 "Hg10 mi
7:56 AM62 °FSunny.16 mph62%29.86 "Hg10 mi
6:56 AM57 °FClear.10 mph72%29.85 "Hg10 mi
5:56 AM58 °FClear.12 mph70%29.83 "Hg10 mi
4:56 AM61 °FClear.17 mph60%29.81 "Hg10 mi
3:56 AM61 °FClear.14 mph54%29.81 "Hg10 mi
2:56 AM61 °FClear.13 mph54%29.81 "Hg10 mi
1:56 AM63 °FClear.9 mph48%29.81 "Hg10 mi
Weather by CustomWeather, © 2015

See weather overviewHow to use our weather pages